CZ-4B R/B

Last updated on Thu Nov 21 2024 00:02:13 GMT+0000 (Coordinated Universal Time)

1 29507U 06046C 24325.52312073 .00008161 00000+0 48932-3 0 9992 2 29507 97.6248 0.7982 0039457 102.3280 258.2371 15.10563572988290
UTC large
Height (km)
Speed (km/s)
/
Latitude / Longitude
Inclination (degrees)
Orbital Period (minutes)
Azimuth
Elevation
Range (km)
Doppler Factor

Next 0 passes for location: London (51.5072 / 0.1276)

Sorry there are no passes over London.